Location: Góry Miechowskie
(50.3599°N, 20.1803°E)
Time: 11:48:37
(UTC+00:00)

Aureole 1 Rocket - Pass Details

Date: 15 June 2024
Orbit: 376 x 1259 km, 73.9° (Epoch: 15 July)

Event Time Altitude Azimuth Distance (km) Brightness Sun altitude
Exits shadow 00:37:47 15° 236° (SW) 1,385 4.3 -11.8°
Maximum altitude 00:40:31 42° 303° (WNW) 804 3.7 -11.6°
Drops below altitude 10° 00:44:51 10° 15° (NNE) 2,085 7.2 -11.3°
Sets 00:47:35 0° 22° (NNE) 3,170 8.8 -11.1°
